Terminal Aerodrome Forecast
Issued by NWS

Home | Current Version | Previous Version | Text Only | Print | Product List | Glossary On
Versions: 1 2 3 4 5 6 7 8 9 10 11 12 13 14 15 16 17 18 19 20 21 22 23 24 25 26 27 28 29 30 31 32 33 34 35 36 37 38 39 40 41 42 43 44 45 46 47 48 49 50
486
FTUS43 KDMX 090759 AAA
TAFMCW
TAF AMD
KMCW 090759Z 0908/1006 33021G28KT 4SM -SN BLSN SCT014 OVC050
      TEMPO 0908/0912 2SM BLSN
     FM091200 33021G30KT 6SM BLSN SCT015 BKN050
     FM091700 33023G32KT 6SM BLSN SCT025 BKN035
     FM092300 32016KT P6SM SCT035=

USA.gov is the U.S. government's official web portal to all federal, state and local government web resources and services.